GSAT-29

Last updated on Mon Oct 14 2024 00:02:41 GMT+0000 (Coordinated Universal Time)

1 43698U 18089A 24287.48900233 .00000083 00000+0 00000+0 0 9997 2 43698 0.0322 112.2987 0002557 97.3265 44.0105 1.00273186 21656
UTC large
Height (km)
Speed (km/s)
/
Latitude / Longitude
Inclination (degrees)
Orbital Period (minutes)
Azimuth
Elevation
Range (km)
Doppler Factor

Next 0 passes for location: London (51.5072 / 0.1276)

Sorry there are no passes over London.